Location: Unspecified
(43.4680°N, 87.1740°E)
Time: 17:20:14
(UTC+00:00)

COSMO-SKYMED 1 - Pass Details

Date: 17 January 2020
Orbit: 621 x 623 km, 97.9° (Epoch: 26 February)

Event Time Altitude Azimuth Distance (km) Brightness Sun altitude
Exits shadow 12:46:20 - 7° (N) 2,878 5.8 -18.6°
Reaches altitude 10° 12:48:30 10° 2° (N) 2,003 5.0 -18.9°
Maximum altitude 12:52:41 48° 288° (WNW) 820 3.5 -19.7°
Drops below altitude 10° 12:56:51 10° 214° (SW) 1,987 5.7 -20.4°
Sets 12:59:04 0° 209° (SSW) 2,888 6.5 -20.8°
